Погода в Знаменке

Россия / Тамбовская область     52°28′29″N   40°35′03″E
темп.,
°C
ветер,
м/с
пор.,
м/с
влажн.,
%
обл.,
%
осадки,
мм/ч
давл.,
гПа
погр.,
м
9 мая, вс
вс900:00+12ю5998100 5.6 1005413
03:00+11ююз2597100 10.4 1005192
06:00+8з61096100 2.4 1006398
09:00+6з5895100 6.3 1008419
12:00+8зсз6890100 0.9 1009694
15:00+5сз71196100 1.8 1013698
18:00+5сз61190100 0.2 1016921
21:00+5сз51192100 0.4 10171207
10 мая, пн
пн1000:00+5ссз71189100 0.2 1018981
03:00+5ссз61193100 0.2 1019890
06:00+5с81389100 0.0 1020767
09:00+6с81388100 0.1 1020736
12:00+5с91690100 0.3 1020654
15:00+6с101992100 1.5 1019647
18:00+8ссв91892100 0.8 1019633
21:00+9ссв92190100 0.8 1019632
11 мая, вт
вт1100:00+9ссв81891100 0.0 1019564
03:00+9ссв91892100 0.1 1018481
06:00+10св81790100 0.1 1019520
09:00+10вюв51194100 1.0 1022591
12:00+13вюв69661 0.2 10231113
15:00+16в710526 0.2 10231969
18:00+14ююв586813 0.1 1024878
21:00+10юв128194 0.1 102617
12 мая, ср
ср1200:00+9ссв1183100 0.0 102610
03:00+9св3688100 0.0 1024156
06:00+8всв37885 0.0 1024245
09:00+14в56729 0.0 1023929
12:00+14в4577100 0.2 1022818
15:00+15в5676100 0.4 1021859
18:00+13вюв4791100 0.1 1021267
21:00+11вюв369344 0.1 1021144
13 мая, чт
чт1300:00+12вюв35965 0.1 1021121
03:00+11вюв349668 0.1 1021101
06:00+12вюв24955 0.0 1021120
09:00+17вюв3477100 0.0 1020602
12:00+21вюв3462100 0.0 10191216
15:00+21вюв3569100 0.2 1019643
18:00+19вюв477688 0.3 1018296
21:00+16юв3586100 0.4 101877